Miami, FL

10:22 PM EST on December 08, 2019 (GMT -0500)
Miami International

Weather History for KMIA - October, 2019

Change the Weather History Date:

Sunday, October 20, 2019

  Actual Average Record
Temperature  
Mean Temperature 86 °F 79 °F  
Max Temperature 92 °F 86 °F 92 °F (2019)
Min Temperature 80 °F 73 °F 54 °F (1927)
Degree Days  
Heating Degree Days 0 0  
Month to date heating degree days 0 0  
Since 1 July heating degree days 0 0  
Cooling Degree Days 21 14  
Month to date cooling degree days 367 315  
Year to date cooling degree days 4458 3927  
Growing Degree Days 36 (Base 50)    
Moisture  
Dew Point 74 °F    
Average Humidity 69    
Maximum Humidity 85    
Minimum Humidity 52    
Precipitation  
Precipitation 0.32 in 0.17 in 5.72 in (1926)
Month to date precipitation 3.63 4.68  
Year to date precipitation 58.80 54.94  
Snow  
Snow 0.00 in - - ()
Month to date snowfall 0.0  
Since 1 July snowfall 0.0  
Since 1 September snowfall 0.0  
Snow Depth 0.00 in    
Sea Level Pressure  
Sea Level Pressure 29.94 in    
Wind  
Wind Speed 7 mph (SSW)    
Max Wind Speed 17 mph    
Max Gust Speed 20 mph    
Visibility 10 miles    
Events Rain , Thunderstorm    
T = Trace of Precipitation, MM = Missing Value Source: NWS Daily Summary

Daily Weather History Graph

Daily Weather History Graph

Search for Another Location

Airport or City:

Astronomy

Oct. 20, 2019 Rise Set
Actual Time 7:22 AM EDT 6:49 PM EDT
Civil Twilight 6:59 AM EDT 7:12 PM EDT
Nautical Twilight 6:32 AM EDT 7:39 PM EDT
Astronomical Twilight 6:05 AM EDT 8:06 PM EDT
Moon No Moon Rise 1:25 PM EDT (10/20)
Length of Visible Light 12h 13m
Length of Day
11h 26m
Waning Gibbous, 59% of the Moon is Illuminated
Oct 20
Waning Gibbous
Oct 21
Last Quarter
Oct 27
New
Nov 4
First Quarter
Nov 12
Full

Hourly Weather History & Observations

Time (EDT) Temp. Heat Index Dew Point Humidity Pressure Visibility Wind Dir Wind Speed Gust Speed Precip Events Conditions
12:53 AM 82.9 °F 90.8 °F 75.9 °F 79% 29.90 in 10.0 mi SSE 8.1 mph - N/A   Scattered Clouds
1:53 AM 82.9 °F 90.8 °F 75.9 °F 79% 29.90 in 10.0 mi Variable 5.8 mph 19.6 mph N/A   Scattered Clouds
2:53 AM 82.9 °F 90.8 °F 75.9 °F 79% 29.88 in 10.0 mi Variable 6.9 mph - N/A   Scattered Clouds
3:53 AM 82.0 °F 89.4 °F 75.9 °F 82% 29.88 in 10.0 mi South 5.8 mph - N/A   Scattered Clouds
4:53 AM 82.9 °F 90.8 °F 75.9 °F 79% 29.89 in 10.0 mi Variable 6.9 mph - N/A   Scattered Clouds
5:53 AM 82.0 °F 89.4 °F 75.9 °F 82% 29.90 in 10.0 mi South 9.2 mph - N/A   Mostly Cloudy
6:53 AM 82.0 °F 89.4 °F 75.9 °F 82% 29.91 in 10.0 mi SSW 4.6 mph - N/A   Mostly Cloudy
7:53 AM 82.0 °F 89.4 °F 75.9 °F 82% 29.94 in 10.0 mi South 6.9 mph - N/A   Mostly Cloudy
8:53 AM 84.0 °F 93.7 °F 77.0 °F 79% 29.95 in 10.0 mi SW 9.2 mph - N/A   Scattered Clouds
9:53 AM 87.1 °F 97.3 °F 75.9 °F 69% 29.98 in 10.0 mi SSW 8.1 mph 18.4 mph N/A   Mostly Cloudy
10:53 AM 88.0 °F 97.5 °F 75.0 °F 65% 29.97 in 10.0 mi SW 9.2 mph - N/A   Mostly Cloudy
11:53 AM 90.0 °F 97.9 °F 73.0 °F 57% 29.97 in 10.0 mi SW 12.7 mph - N/A   Mostly Cloudy
12:53 PM 90.0 °F 96.9 °F 72.0 °F 55% 29.96 in 10.0 mi WSW 11.5 mph - N/A   Mostly Cloudy
1:53 PM 91.0 °F 98.2 °F 72.0 °F 53% 29.94 in 10.0 mi WSW 12.7 mph 18.4 mph N/A   Mostly Cloudy
2:53 PM 91.0 °F 98.2 °F 72.0 °F 53% 29.93 in 10.0 mi WSW 12.7 mph 19.6 mph N/A   Mostly Cloudy
3:53 PM 90.0 °F 96.9 °F 72.0 °F 55% 29.92 in 10.0 mi West 10.4 mph - N/A   Mostly Cloudy
4:53 PM 88.0 °F 94.7 °F 72.0 °F 59% 29.92 in 10.0 mi West 8.1 mph - N/A   Mostly Cloudy
5:53 PM 88.0 °F 93.8 °F 71.1 °F 57% 29.93 in 10.0 mi WSW 8.1 mph - N/A Thunderstorm Thunderstorm
6:27 PM 86.0 °F 92.2 °F 72.0 °F 63% 29.94 in 10.0 mi South 9.2 mph - N/A   Mostly Cloudy
6:38 PM 82.9 °F 88.8 °F 73.0 °F 72% 29.94 in 10.0 mi South 8.1 mph - N/A Thunderstorm Thunderstorm
6:53 PM 82.0 °F 87.4 °F 73.0 °F 74% 29.95 in 10.0 mi South 6.9 mph - N/A Thunderstorm Mostly Cloudy
7:44 PM 81.0 °F 86.2 °F 73.9 °F 79% 29.95 in 5.0 mi SSW 17.3 mph - 0.00 in Rain Rain
7:53 PM 81.0 °F 85.8 °F 73.0 °F 77% 29.96 in 4.0 mi Calm Calm - 0.30 in Rain Heavy Rain
8:53 PM 81.0 °F 87.3 °F 75.9 °F 85% 29.97 in 10.0 mi Calm Calm - 0.02 in   Overcast
9:53 PM 81.0 °F 87.3 °F 75.9 °F 85% 29.99 in 10.0 mi Calm Calm - N/A   Overcast
10:53 PM 81.0 °F 87.3 °F 75.9 °F 85% 29.99 in 10.0 mi South 3.5 mph - N/A   Mostly Cloudy
11:53 PM 81.0 °F 86.7 °F 75.0 °F 82% 29.99 in 10.0 mi South 3.5 mph - N/A   Mostly Cloudy